Location: Unspecified
(33.6682°S, 0.0000°E)
Time: 03:02:20
(UTC+00:00)

Tiros 1 despin weight - Pass Details

Date: 24 June 2019
Orbit: 594 x 642 km, 48.2° (Epoch: 18 July)

Event Time Altitude Azimuth Distance (km) Brightness Sun altitude
Rises 10:41:08 0° 282° (WNW) 2,911 ? 29.7°
Reaches altitude 10° 10:43:38 10° 271° (W) 2,017 ? 29.9°
Maximum altitude 10:47:49 32° 208° (SSW) 1,103 ? 30.2°
Drops below altitude 10° 10:52:04 10° 144° (SE) 2,050 ? 30.5°
Sets 10:54:38 0° 133° (SE) 2,968 ? 30.7°
